Wind_Speed
22 22 24 25 26 26 26 26 26 26 26 25 25 25 25 25 25 26 28 28 27 27 27 27 28 27 26 25 26 25 24 24 25 25 24 24 24 24 25 25 25 25 25
15 16 17 17 17 18 17 17 16 17 17 16 17 18 20 19 19 21 22 22 23 22 23 23 24 24 24 24 24 23 23 23 24 24 24 24 24 24 24 24 25 24 25
6 8 8 8 9 9 9 9 10 9 9 9 10 11 12 13 14 15 15 16 17 18 19 20 21 21 22 22 23 23 23 23 23 24 24 24 23 23 23 23 23 23 24
3 3 2 1 1 1 2 3 3 3 4 5 6 7 8 9 11 12 13 14 15 16 18 19 20 20 21 22 22 23 23 23 23 23 24 24 23 23 23 23 22 22 23
10 9 8 7 6 5 4 4 4 4 5 6 7 8 9 11 13 14 15 16 17 18 19 19 20 20 21 22 22 22 22 22 23 23 23 23 22 22 23 22 22 22 22
11 10 9 8 8 7 6 6 6 6 7 9 10 11 12 14 15 16 17 19 20 20 21 21 22 22 23 23 22 22 22 22 22 22 22 22 22 21 21 21 21 21 21
13 12 11 10 9 9 8 8 8 8 9 10 11 12 14 15 17 18 20 20 21 22 22 22 22 22 23 23 22 22 22 21 21 22 22 21 21 20 20 20 20 20 20
15 14 13 12 11 11 11 10 10 10 10 11 12 13 14 16 18 19 20 21 22 22 22 23 22 22 23 23 22 22 21 21 20 20 20 20 19 19 19 19 18 18 18
17 17 16 15 15 14 14 13 12 11 11 12 12 13 14 15 16 18 20 20 21 21 22 22 23 23 22 22 21 20 20 19 19 19 18 18 17 17 17 17 17 17 17
19 19 18 17 17 16 16 16 15 14 13 13 12 13 13 14 15 16 17 18 18 18 18 19 19 20 19 19 19 19 18 17 17 16 16 16 16 15 14 14 15 15 15
20 20 20 19 19 18 18 18 18 17 16 15 14 13 13 13 13 13 13 13 13 13 14 14 14 15 15 16 16 16 16 15 15 14 13 13 13 12 12 12 12 12 13
21 21 21 21 21 20 20 20 20 19 19 18 17 15 14 14 13 12 10 9 8 7 8 9 10 11 12 13 14 13 13 12 12 12 11 11 11 11 11 12 12 12 12
21 21 22 22 22 22 22 22 22 22 21 21 20 18 17 16 15 13 10 9 7 5 3 3 4 6 8 9 10 10 10 10 9 9 9 9 10 10 11 11 11 11 11
19 20 21 21 22 22 23 23 23 23 23 23 22 21 20 19 18 16 14 11 10 8 6 4 2 1 3 5 6 6 7 7 7 6 7 7 7 8 9 9 10 10 10
18 19 19 20 21 22 22 23 23 23 24 24 24 23 22 21 20 19 18 16 14 13 11 9 7 5 3 3 3 3 3 2 3 4 4 4 5 6 6 6 5 6 6
17 17 18 19 20 21 21 22 23 23 24 24 24 24 23 23 22 21 21 20 18 16 15 14 12 11 9 7 7 5 4 4 3 2 1 0 1 1 1 2 3 4 5
16 17 17 18 19 20 20 21 22 22 23 24 24 24 24 23 23 22 22 21 20 19 18 18 17 16 14 13 12 10 9 9 8 7 6 5 5 4 4 4 5 5 6
15 16 17 18 18 19 19 20 20 21 22 23 24 24 24 24 24 23 22 21 21 20 20 19 19 18 18 17 16 15 14 13 12 12 11 11 10 10 9 9 8 9 9
14 15 16 17 17 18 19 19 19 20 21 22 22 23 23 23 24 24 23 22 22 21 20 20 19 19 19 18 18 17 16 15 15 14 14 13 13 13 13 12 12 12 12
13 14 15 16 17 18 18 18 19 19 20 20 21 21 22 22 23 23 23 23 22 21 20 20 19 19 19 18 18 17 17 17 16 16 15 15 14 14 14 14 14 13 14
11 12 14 15 16 16 17 17 18 18 18 18 19 19 20 20 21 22 22 22 22 21 21 20 19 19 18 18 17 17 17 16 16 16 15 15 14 14 13 13 13 13 13
9 10 11 13 14 15 15 16 16 16 17 17 17 17 18 18 19 20 20 21 21 20 20 20 20 19 19 18 18 17 17 16 16 16 15 15 14 14 13 13 12 12 12
7 8 9 10 11 13 13 14 15 15 15 15 15 15 15 15 16 17 17 18 19 19 19 19 19 19 18 18 18 17 16 16 15 15 15 14 14 14 13 13 12 12 13
8 8 8 8 9 10 11 12 13 13 13 13 13 13 13 13 13 14 14 15 16 16 17 17 17 17 17 17 17 16 16 16 16 15 15 15 15 14 14 14 14 14 14
9 9 9 8 8 8 9 10 10 11 11 11 11 11 11 11 11 11 11 11 12 13 13 13 14 14 15 15 15 15 15 15 15 15 14 14 14 14 14 14 14 14 14
10 10 10 10 9 9 9 9 9 9 9 9 9 9 8 8 8 8 8 8 8 9 9 9 10 11 11 12 12 13 13 13 13 13 13 13 13 13 13 14 14 14 15
Wind_Direction
260 263 265 266 268 270 270 271 270 270 270 268 264 263 263 261 261 259 258 256 253 250 247 245 244 244 243 247 251 253 255 257 257 260 261 262 264 266 267 271 272 270 266
261 266 268 270 270 269 268 270 270 269 266 265 261 258 260 255 254 253 250 249 249 249 249 248 248 248 247 249 251 254 256 256 257 260 262 264 265 266 268 270 270 269 266
262 269 271 270 270 269 269 269 268 266 263 257 255 253 251 249 247 248 249 247 248 248 248 249 249 250 251 252 254 255 256 258 259 261 263 265 265 266 267 269 270 268 266
84 79 82 56 9 329 306 302 293 267 259 256 261 258 256 257 258 257 256 258 255 253 253 253 252 252 253 255 256 257 258 260 261 262 263 264 265 266 267 268 268 266 264
72 68 60 52 43 33 21 5 346 321 303 293 282 274 268 267 266 264 264 263 264 264 262 260 258 257 257 258 258 259 260 261 262 262 263 264 265 266 267 267 267 268 265
59 53 48 42 32 24 9 353 336 318 303 291 285 281 278 277 273 271 269 268 267 267 266 264 260 258 258 259 260 260 261 262 262 263 264 265 266 266 267 267 267 267 266
55 49 42 33 23 14 4 351 338 325 314 303 296 290 287 283 278 276 275 274 271 268 266 265 262 259 258 259 259 260 262 264 264 264 265 265 265 266 267 268 267 266 265
49 43 38 33 28 20 10 360 349 337 328 318 309 302 296 291 284 280 276 276 274 271 268 267 264 261 259 260 259 259 261 262 263 264 264 265 265 266 267 267 266 266 266
48 45 42 40 35 28 20 13 4 354 342 332 323 317 310 304 297 289 283 281 278 274 270 267 264 262 259 257 257 258 259 261 262 263 264 264 264 266 266 266 266 265 266
50 48 45 41 37 32 27 23 18 11 2 352 342 335 328 319 311 303 296 289 283 276 272 267 264 261 257 254 254 255 255 256 257 259 260 260 261 263 265 266 266 265 267
50 48 45 42 39 36 33 29 26 22 16 8 359 352 346 340 330 321 313 304 292 281 274 268 263 258 253 251 250 250 251 252 254 255 256 257 257 259 261 265 268 268 268
50 47 45 43 42 40 37 33 29 26 22 18 14 9 3 357 352 345 338 329 317 297 281 269 259 254 247 244 243 245 249 252 252 251 251 254 256 258 262 267 270 271 272
49 47 45 44 43 41 38 35 33 30 28 26 24 21 20 18 16 13 10 8 7 356 328 285 259 246 241 238 238 241 244 249 250 250 250 255 259 263 267 272 275 275 276
46 44 42 41 40 38 37 35 34 32 31 30 30 30 30 30 31 32 32 35 38 42 45 48 58 211 220 219 222 229 234 241 246 249 250 256 265 271 275 277 278 278 279
42 40 39 38 36 35 34 34 34 33 32 32 33 35 36 37 39 41 44 47 51 54 58 62 66 78 103 130 149 161 175 204 226 238 250 262 274 278 280 282 286 287 290
37 35 33 33 31 31 31 31 32 33 33 33 34 36 39 41 44 46 48 51 54 57 59 62 67 72 81 92 98 102 104 103 108 116 122 108 313 321 327 331 334 331 327
34 32 29 28 28 28 29 30 32 34 35 36 37 39 41 44 45 48 50 53 55 58 61 63 67 70 75 81 84 85 86 85 83 79 77 73 66 59 55 47 37 26 19
31 29 28 26 26 27 27 29 31 33 35 37 39 41 44 45 47 49 51 54 58 60 63 65 67 69 72 75 77 79 79 78 76 73 71 71 70 69 68 64 57 48 41
28 28 27 27 26 27 27 28 30 32 34 37 39 42 45 47 48 50 53 55 58 60 62 64 66 68 70 72 73 73 74 74 73 71 70 70 70 69 67 63 60 56 51
26 27 27 27 27 27 27 29 31 32 34 37 40 43 45 47 49 51 53 55 57 59 61 63 65 67 68 69 70 70 70 70 70 69 68 68 67 66 64 62 58 54 50
19 22 24 24 25 25 26 27 30 33 35 37 40 43 46 49 50 52 53 55 57 59 61 62 64 66 67 67 67 67 68 68 68 67 67 65 63 61 58 55 52 48 43
5 11 15 18 20 21 22 24 27 31 34 37 40 43 46 48 50 51 52 54 56 58 60 61 62 64 65 66 66 66 66 66 64 63 61 59 57 55 52 48 45 41 37
340 349 357 5 10 14 16 19 22 26 31 36 39 41 44 46 48 50 51 53 54 56 58 60 60 61 62 63 63 63 63 62 60 59 57 54 52 49 46 43 39 36 32
313 322 331 342 352 1 8 11 15 18 22 28 33 37 40 43 46 48 51 53 53 54 55 56 57 58 59 59 59 58 58 57 55 53 51 49 47 45 42 39 36 32 28
297 300 307 315 324 335 346 356 2 7 11 16 21 27 31 36 40 44 48 50 51 51 52 53 53 53 53 54 54 52 51 49 47 45 43 41 39 36 34 31 28 25 21
290 290 292 295 300 308 317 327 337 346 353 360 5 10 16 20 26 32 36 39 41 44 45 44 42 41 41 42 42 42 40 38 35 32 29 26 24 21 18 16 14 11 9
Height
5793 5795 5796 5796 5797 5797 5798 5797 5797 5797 5796 5796 5796 5797 5797 5798 5798 5799 5800 5800 5801 5801 5803 5804 5806 5808 5810 5811 5813 5815 5817 5818 5818 5819 5820 5820 5820 5820 5820 5819 5819 5818 5817
5790 5791 5791 5792 5792 5792 5792 5792 5791 5791 5790 5790 5790 5791 5791 5791 5792 5793 5793 5793 5794 5795 5797 5798 5800 5801 5803 5804 5806 5808 5809 5811 5811 5812 5813 5813 5814 5814 5813 5813 5812 5811 5811
5787 5788 5788 5789 5789 5789 5789 5788 5788 5787 5787 5787 5787 5787 5787 5787 5788 5788 5788 5789 5789 5790 5791 5793 5794 5795 5796 5798 5800 5801 5802 5803 5804 5805 5806 5806 5807 5807 5806 5806 5806 5805 5804
5787 5788 5787 5788 5787 5787 5787 5786 5785 5785 5785 5785 5784 5784 5784 5784 5784 5784 5784 5785 5785 5786 5787 5787 5788 5789 5790 5792 5793 5794 5796 5797 5797 5798 5799 5799 5800 5800 5799 5799 5799 5799 5798
5789 5789 5789 5788 5788 5787 5786 5785 5785 5784 5783 5783 5782 5782 5782 5781 5781 5781 5781 5781 5781 5781 5782 5782 5783 5784 5785 5786 5787 5788 5789 5790 5791 5791 5792 5793 5793 5793 5793 5793 5793 5793 5792
5791 5791 5790 5789 5788 5787 5786 5785 5784 5783 5782 5781 5780 5779 5779 5778 5777 5777 5777 5776 5776 5776 5776 5777 5777 5778 5779 5779 5780 5781 5783 5783 5784 5785 5786 5786 5787 5787 5787 5787 5787 5787 5787
5794 5793 5792 5790 5789 5787 5786 5784 5783 5781 5780 5778 5777 5776 5775 5774 5773 5772 5771 5771 5770 5770 5770 5770 5771 5771 5772 5773 5774 5775 5776 5777 5778 5779 5780 5780 5781 5781 5781 5781 5781 5781 5781
5796 5795 5793 5791 5789 5788 5786 5784 5782 5780 5778 5776 5774 5772 5771 5769 5767 5766 5765 5764 5763 5763 5763 5763 5764 5765 5765 5767 5768 5769 5770 5771 5772 5773 5774 5775 5775 5776 5776 5776 5776 5776 5776
5799 5797 5795 5793 5791 5788 5786 5783 5781 5778 5776 5773 5771 5769 5767 5764 5762 5760 5759 5757 5756 5756 5756 5756 5757 5758 5759 5760 5762 5763 5765 5766 5767 5768 5769 5770 5770 5771 5771 5771 5771 5771 5771
5802 5800 5797 5795 5792 5790 5787 5784 5781 5778 5775 5772 5769 5766 5763 5760 5758 5755 5753 5751 5750 5750 5750 5750 5750 5751 5753 5754 5756 5758 5760 5761 5762 5763 5764 5765 5766 5766 5766 5767 5766 5766 5766
5806 5803 5800 5797 5795 5792 5789 5785 5782 5779 5775 5771 5768 5764 5761 5758 5754 5751 5749 5747 5745 5744 5744 5744 5745 5746 5748 5749 5751 5753 5755 5756 5758 5759 5760 5761 5762 5762 5762 5762 5762 5762 5762
5810 5807 5804 5800 5797 5794 5791 5787 5784 5780 5776 5772 5768 5764 5760 5756 5752 5749 5746 5744 5742 5741 5741 5741 5741 5742 5744 5746 5748 5749 5751 5753 5754 5755 5756 5757 5758 5759 5759 5759 5759 5759 5759
5814 5811 5808 5804 5801 5797 5794 5790 5786 5782 5778 5773 5769 5764 5760 5756 5752 5749 5746 5743 5741 5740 5739 5739 5739 5740 5741 5743 5745 5746 5748 5750 5751 5752 5753 5754 5755 5755 5755 5756 5756 5755 5755
5817 5814 5811 5808 5804 5801 5797 5793 5789 5785 5780 5776 5771 5766 5762 5758 5754 5750 5747 5744 5742 5741 5740 5739 5739 5739 5740 5741 5743 5745 5746 5748 5749 5750 5751 5752 5752 5752 5752 5752 5752 5752 5752
5821 5818 5815 5811 5808 5804 5801 5797 5792 5788 5783 5779 5774 5769 5765 5761 5757 5753 5750 5747 5745 5743 5742 5741 5740 5740 5741 5742 5743 5744 5746 5747 5748 5748 5749 5750 5750 5750 5750 5750 5750 5750 5750
5824 5821 5818 5815 5811 5808 5804 5800 5796 5792 5787 5782 5778 5773 5769 5765 5761 5758 5755 5752 5749 5748 5746 5745 5744 5743 5743 5743 5744 5745 5746 5747 5747 5748 5748 5749 5749 5749 5749 5748 5748 5748 5748
5827 5824 5821 5817 5814 5811 5807 5803 5799 5795 5791 5787 5782 5778 5774 5770 5766 5763 5760 5757 5755 5753 5751 5750 5748 5747 5747 5747 5747 5748 5748 5748 5749 5749 5749 5749 5748 5748 5748 5748 5748 5747 5747
5829 5826 5823 5820 5817 5813 5810 5806 5803 5799 5795 5791 5787 5783 5779 5775 5772 5768 5766 5763 5761 5759 5757 5756 5754 5753 5752 5752 5752 5751 5751 5751 5751 5751 5751 5750 5750 5749 5749 5749 5748 5748 5747
5831 5829 5826 5823 5819 5816 5813 5809 5806 5802 5799 5795 5791 5788 5784 5781 5778 5775 5772 5769 5767 5765 5763 5762 5760 5759 5758 5757 5757 5756 5756 5755 5755 5754 5754 5753 5753 5752 5752 5751 5750 5749 5748
5833 5830 5828 5825 5822 5819 5816 5812 5809 5806 5803 5799 5796 5793 5790 5786 5784 5781 5778 5775 5773 5771 5769 5768 5766 5765 5764 5763 5762 5761 5760 5760 5759 5758 5757 5757 5756 5755 5755 5754 5753 5752 5750
5835 5832 5830 5827 5824 5821 5818 5815 5812 5809 5806 5803 5800 5797 5794 5792 5789 5786 5784 5781 5779 5777 5775 5773 5772 5770 5769 5768 5767 5766 5765 5764 5763 5762 5761 5760 5759 5758 5757 5756 5755 5754 5752
5835 5834 5831 5829 5826 5824 5821 5818 5815 5812 5809 5807 5804 5801 5799 5796 5794 5791 5789 5787 5784 5782 5780 5779 5777 5775 5774 5773 5771 5770 5769 5768 5767 5766 5765 5764 5762 5761 5760 5758 5757 5755 5754
5835 5834 5832 5830 5828 5826 5823 5820 5818 5815 5812 5810 5807 5805 5802 5800 5798 5796 5794 5791 5789 5787 5785 5784 5782 5780 5779 5777 5776 5774 5773 5772 5771 5769 5768 5767 5765 5764 5762 5760 5759 5757 5755
5835 5833 5832 5830 5829 5827 5824 5822 5819 5817 5814 5812 5810 5808 5805 5803 5801 5799 5798 5796 5794 5792 5790 5788 5786 5785 5783 5782 5780 5779 5777 5776 5774 5773 5771 5769 5768 5766 5764 5762 5760 5758 5755
5833 5832 5831 5829 5828 5826 5825 5823 5820 5818 5816 5814 5812 5810 5808 5806 5804 5802 5801 5799 5797 5796 5794 5792 5791 5789 5787 5785 5784 5782 5781 5779 5777 5776 5774 5772 5770 5768 5766 5764 5761 5759 5756
5830 5829 5828 5827 5826 5825 5824 5822 5821 5819 5817 5815 5813 5811 5809 5807 5806 5804 5803 5801 5800 5798 5797 5795 5794 5792 5790 5789 5787 5785 5783 5782 5780 5778 5776 5774 5772 5769 5767 5765 5762 5760 5757